Tracking 25953 objects as of 16-Aug-2022
HD Live streaming from Space Station
objects crossing your sky now

STARLINK-3530

Track STARLINK-3530 now!
10-day predictions
STARLINK-3530 is classified as:


NORAD ID: 51730
Int'l Code: 2022-016S
Perigee: 545.8 km
Apogee: 547.8 km
Inclination: 53.2 °
Period: 95.4 minutes
Semi major axis: 6917 km
RCS: Unknown
Launch date: February 21, 2022
Source: United States (US)
Launch site: AIR FORCE EASTERN TEST RANGE (AFETR)
aabbcc
Your satellite tracking list
Your tracking list is empty




NASA's NSSDC Master Catalog

Two Line Element Set (TLE):
1 51730U 22016S   22227.58334491 -.00024536  00000-0 -15277-2 0  9995
2 51730  53.2192  44.5025 0001426  60.6109 286.4349 15.08865485  1305
Source of the keplerian elements: AFSPC